Location: Unspecified
(43.1763°N, 79.4719°W)
Time: 19:04:44
(UTC-04:00)

CZ-3 Stage 3 - Visible Passes

Search period start: 20 August 2017 00:00
Search period end: 30 August 2017 00:00
Orbit: 429 x 34770 km, 31.0° (Epoch: 20 August)

Date Brightness Start Highest point End Pass type
(mag) Time Alt. Az. Time Alt. Az. Time Alt. Az.
20 Aug 6.8 13:05:03 10° W 13:22:32 63° S 21:21:02 10° S visible
22 Aug 8.5 16:37:19 10° W 17:32:11 42° SW 22:09:05 10° SW visible
23 Aug 6.7 12:55:56 10° W 13:13:16 62° S 21:08:32 10° S visible
25 Aug 8.5 16:28:16 10° W 17:22:22 42° SW 21:54:04 10° SW visible
26 Aug 6.7 12:46:47 10° W 13:03:58 61° S 20:55:53 10° S visible
28 Aug 8.5 16:19:13 10° W 17:12:33 41° SW 21:39:00 10° SW visible
29 Aug 6.7 12:37:39 10° W 12:54:40 61° S 20:43:07 10° S visible
